| time (UTC) | temp C | wind direction | speed KPH | gust KPH | rain 1hr cm | rain 24hr cm | rain mn cm | humidity % | barometer mb |
| 20260510162248 | 26 | 287 | 3.2 | 3.2 | 0.00 | 0.00 | 0.00 | 48 | 1016.5 |
| 20260510161744 | 26 | 194 | 0.0 | 3.2 | 0.00 | 0.00 | 0.00 | 48 | 1016.7 |
| 20260510161240 | 26 | 101 | 3.2 | 6.4 | 0.00 | 0.00 | 0.00 | 48 | 1016.7 |
| 20260510160737 | 25 | 196 | 0.0 | 9.7 | 0.00 | 0.00 | 0.00 | 47 | 1016.7 |
| 20260510160233 | 25 | 266 | 3.2 | 3.2 | 0.00 | 0.00 | 0.00 | 49 | 1016.5 |
| 20260510155729 | 25 | 275 | 3.2 | 3.2 | 0.00 | 0.00 | 0.00 | 52 | 1016.8 |
| 20260510155225 | 25 | 81 | 0.0 | 3.2 | 0.00 | 0.00 | 0.00 | 54 | 1016.8 |
| 20260510154721 | 25 | 262 | 1.6 | 4.8 | 0.00 | 0.00 | 0.00 | 55 | 1016.8 |
| 20260510154217 | 25 | 330 | 3.2 | 4.8 | 0.00 | 0.00 | 0.00 | 55 | 1016.7 |
| 20260510153712 | 25 | 275 | 3.2 | 4.8 | 0.00 | 0.00 | 0.00 | 58 | 1016.7 |
| 20260510153208 | 25 | 297 | 0.0 | 3.2 | 0.00 | 0.00 | 0.00 | 59 | 1016.7 |
| 20260510152705 | 24 | 270 | 0.0 | 1.6 | 0.00 | 0.00 | 0.00 | 63 | 1016.7 |
| 20260510152201 | 24 | 90 | 0.0 | 3.2 | 0.00 | 0.00 | 0.00 | 63 | 1016.7 |
| 20260510151658 | 24 | 345 | 0.0 | 3.2 | 0.00 | 0.00 | 0.00 | 64 | 1016.8 |
| 20260510151156 | 23 | 127 | 0.0 | 4.8 | 0.00 | 0.00 | 0.00 | 65 | 1016.8 |
| 20260510150652 | 23 | 277 | 0.0 | 4.8 | 0.00 | 0.00 | 0.00 | 66 | 1016.8 |
| 20260510150147 | 23 | 36 | 3.2 | 8.0 | 0.00 | 0.00 | 0.00 | 66 | 1016.7 |
| 20260510145644 | 23 | 0 | 0.0 | 3.2 | 0.00 | 0.00 | 0.00 | 69 | 1016.8 |
| 20260510145140 | 23 | 311 | 0.0 | 3.2 | 0.00 | 0.00 | 0.00 | 71 | 1016.9 |
| 20260510144636 | 22 | 260 | 3.2 | 3.2 | 0.00 | 0.00 | 0.00 | 72 | 1016.8 |
| 20260510144133 | 22 | 291 | 1.6 | 3.2 | 0.00 | 0.00 | 0.00 | 74 | 1016.8 |
| 20260510143628 | 22 | 29 | 3.2 | 4.8 | 0.00 | 0.00 | 0.00 | 75 | 1016.9 |
| 20260510143125 | 22 | 294 | 0.0 | 4.8 | 0.00 | 0.00 | 0.00 | 77 | 1016.8 |
| 20260510142621 | 21 | 48 | 0.0 | 4.8 | 0.00 | 0.00 | 0.00 | 80 | 1016.8 |
| 20260510142118 | 21 | 294 | 0.0 | 1.6 | 0.00 | 0.00 | 0.00 | 79 | 1016.7 |
| 20260510141615 | 20 | 2 | 4.8 | 6.4 | 0.00 | 0.00 | 0.00 | 81 | 1016.7 |
| 20260510141113 | 20 | 114 | 0.0 | 3.2 | 0.00 | 0.00 | 0.00 | 82 | 1016.8 |
| 20260510140609 | 20 | 7 | 3.2 | 8.0 | 0.00 | 0.00 | 0.00 | 83 | 1017.0 |
| 20260510140108 | 20 | 21 | 3.2 | 3.2 | 0.00 | 0.00 | 0.00 | 83 | 1016.9 |
| 20260510135604 | 19 | 180 | 0.0 | 3.2 | 0.00 | 0.00 | 0.00 | 84 | 1016.9 |
| 20260510135100 | 19 | 8 | 0.0 | 3.2 | 0.00 | 0.00 | 0.00 | 85 | 1016.7 |
| 20260510134558 | 18 | 12 | 4.8 | 4.8 | 0.00 | 0.00 | 0.00 | 85 | 1016.8 |
| 20260510134054 | 18 | 69 | 0.0 | 1.6 | 0.00 | 0.00 | 0.00 | 86 | 1016.8 |
| 20260510133550 | 18 | 12 | 3.2 | 4.8 | 0.00 | 0.00 | 0.00 | 87 | 1016.8 |
| 20260510133046 | 17 | 279 | 0.0 | 0.0 | 0.00 | 0.00 | 0.00 | 87 | 1016.8 |
| 20260510132543 | 17 | 0 | 0.0 | 4.8 | 0.00 | 0.00 | 0.00 | 87 | 1016.6 |
| 20260510132040 | 17 | 300 | 0.0 | 1.6 | 0.00 | 0.00 | 0.00 | 88 | 1016.7 |
| 20260510131538 | 17 | 270 | 0.0 | 1.6 | 0.00 | 0.00 | 0.00 | 88 | 1016.6 |
| 20260510131035 | 16 | 0 | 0.0 | 0.0 | 0.00 | 0.00 | 0.00 | 88 | 1016.3 |
| 20260510130531 | 16 | 270 | 1.6 | 1.6 | 0.00 | 0.00 | 0.00 | 88 | 1016.8 |
| 20260510130029 | 16 | 7 | 0.0 | 0.0 | 0.00 | 0.00 | 0.00 | 88 | 1017.0 |
| 20260510125525 | 16 | 279 | 0.0 | 3.2 | 0.00 | 0.00 | 0.00 | 88 | 1016.5 |
| 20260510125021 | 16 | 340 | 0.0 | 1.6 | 0.00 | 0.00 | 0.00 | 88 | 1016.5 |
| 20260510124518 | 16 | 32 | 3.2 | 3.2 | 0.00 | 0.00 | 0.00 | 88 | 1016.5 |
| 20260510124015 | 15 | 90 | 0.0 | 1.6 | 0.00 | 0.00 | 0.00 | 88 | 1016.5 |
| 20260510123510 | 15 | 270 | 0.0 | 0.0 | 0.00 | 0.00 | 0.00 | 88 | 1016.2 |
| 20260510123006 | 15 | 35 | 0.0 | 0.0 | 0.00 | 0.00 | 0.00 | 88 | 1016.2 |
| 20260510122502 | 15 | 8 | 0.0 | 0.0 | 0.00 | 0.00 | 0.00 | 88 | 1015.9 |
| 20260510121958 | 15 | 7 | 0.0 | 1.6 | 0.00 | 0.00 | 0.00 | 88 | 1016.1 |
| 20260510121455 | 15 | 14 | 0.0 | 1.6 | 0.00 | 0.00 | 0.00 | 88 | 1016.0 |
| 20260510120953 | 14 | 90 | 0.0 | 0.0 | 0.00 | 0.00 | 0.00 | 88 | 1015.7 |
| 20260510120450 | 14 | 90 | 0.0 | 0.0 | 0.00 | 0.00 | 0.00 | 88 | 1015.6 |
| 20260510115946 | 13 | 286 | 0.0 | 0.0 | 0.00 | 0.00 | 0.00 | 88 | 1015.6 |
| 20260510115443 | 13 | 352 | 0.0 | 0.0 | 0.00 | 0.00 | 0.00 | 88 | 1015.5 |
| 20260510114939 | 13 | 352 | 0.0 | 0.0 | 0.00 | 0.00 | 0.00 | 88 | 1015.6 |
| 20260510114436 | 13 | 0 | 0.0 | 0.0 | 0.00 | 0.00 | 0.00 | 88 | 1015.3 |
| 20260510113932 | 13 | 0 | 0.0 | 0.0 | 0.00 | 0.00 | 0.00 | 88 | 1015.5 |
| 20260510113427 | 12 | 0 | 0.0 | 0.0 | 0.00 | 0.00 | 0.00 | 87 | 1015.2 |
| 20260510112925 | 12 | 0 | 0.0 | 0.0 | 0.00 | 0.00 | 0.00 | 87 | 1015.3 |
| 20260510112422 | 12 | 0 | 0.0 | 0.0 | 0.00 | 0.00 | 0.00 | 87 | 1015.3 |
| 20260510111918 | 12 | 0 | 0.0 | 0.0 | 0.00 | 0.00 | 0.00 | 87 | 1015.2 |
| 20260510111414 | 12 | 0 | 0.0 | 0.0 | 0.00 | 0.00 | 0.00 | 87 | 1014.9 |
| 20260510110910 | 12 | 0 | 0.0 | 0.0 | 0.00 | 0.00 | 0.00 | 87 | 1014.9 |
| 20260510110406 | 12 | 0 | 0.0 | 0.0 | 0.00 | 0.00 | 0.00 | 87 | 1015.0 |
| 20260510105902 | 12 | 0 | 0.0 | 0.0 | 0.00 | 0.00 | 0.00 | 87 | 1014.8 |
| 20260510105357 | 12 | 0 | 0.0 | 0.0 | 0.00 | 0.00 | 0.00 | 86 | 1014.8 |
| 20260510104853 | 12 | 0 | 0.0 | 0.0 | 0.00 | 0.00 | 0.00 | 87 | 1014.6 |
| 20260510104350 | 12 | 0 | 0.0 | 0.0 | 0.00 | 0.00 | 0.00 | 86 | 1014.4 |
| 20260510103846 | 12 | 0 | 0.0 | 0.0 | 0.00 | 0.00 | 0.00 | 86 | 1014.6 |
| 20260510103343 | 12 | 0 | 0.0 | 0.0 | 0.00 | 0.00 | 0.00 | 86 | 1014.6 |
| 20260510102838 | 12 | 0 | 0.0 | 0.0 | 0.00 | 0.00 | 0.00 | 86 | 1014.3 |
| 20260510102329 | 12 | 0 | 0.0 | 0.0 | 0.00 | 0.00 | 0.00 | 86 | 1014.1 |
| 20260510101826 | 12 | 0 | 0.0 | 0.0 | 0.00 | 0.00 | 0.00 | 86 | 1013.8 |
| 20260510101325 | 12 | 0 | 0.0 | 0.0 | 0.00 | 0.00 | 0.00 | 86 | 1014.0 |
| 20260510100820 | 12 | 0 | 0.0 | 1.6 | 0.00 | 0.00 | 0.00 | 86 | 1014.0 |
| 20260510100319 | 12 | 180 | 0.0 | 0.0 | 0.00 | 0.00 | 0.00 | 86 | 1013.9 |
| 20260510095814 | 12 | 180 | 0.0 | 0.0 | 0.00 | 0.00 | 0.00 | 86 | 1013.7 |
| 20260510095309 | 12 | 180 | 0.0 | 0.0 | 0.00 | 0.00 | 0.00 | 86 | 1013.9 |
| 20260510094808 | 12 | 180 | 0.0 | 0.0 | 0.00 | 0.00 | 0.00 | 86 | 1013.7 |
| 20260510094304 | 12 | 180 | 0.0 | 0.0 | 0.00 | 0.00 | 0.00 | 86 | 1013.7 |
| 20260510093800 | 12 | 180 | 0.0 | 1.6 | 0.00 | 0.00 | 0.00 | 86 | 1013.8 |
| 20260510093257 | 13 | 157 | 0.0 | 1.6 | 0.00 | 0.00 | 0.00 | 86 | 1013.7 |
| 20260510092753 | 13 | 172 | 0.0 | 0.0 | 0.00 | 0.00 | 0.00 | 85 | 1013.6 |
| 20260510092249 | 13 | 270 | 0.0 | 0.0 | 0.00 | 0.00 | 0.00 | 85 | 1013.8 |
| 20260510091745 | 13 | 270 | 0.0 | 0.0 | 0.00 | 0.00 | 0.00 | 85 | 1013.6 |
| 20260510091243 | 13 | 270 | 0.0 | 0.0 | 0.00 | 0.00 | 0.00 | 85 | 1013.7 |
| 20260510090739 | 13 | 270 | 0.0 | 0.0 | 0.00 | 0.00 | 0.00 | 85 | 1013.6 |
| 20260510090236 | 13 | 270 | 0.0 | 0.0 | 0.00 | 0.00 | 0.00 | 85 | 1013.4 |
| 20260510085731 | 13 | 270 | 0.0 | 0.0 | 0.00 | 0.00 | 0.00 | 85 | 1013.3 |
| 20260510085226 | 13 | 270 | 0.0 | 0.0 | 0.00 | 0.00 | 0.00 | 85 | 1013.3 |
| 20260510084722 | 13 | 270 | 0.0 | 0.0 | 0.00 | 0.00 | 0.00 | 85 | 1013.5 |
| 20260510084219 | 13 | 270 | 0.0 | 0.0 | 0.00 | 0.00 | 0.00 | 85 | 1013.3 |
| 20260510083715 | 13 | 270 | 0.0 | 0.0 | 0.00 | 0.00 | 0.00 | 85 | 1013.3 |
| 20260510083213 | 13 | 270 | 0.0 | 0.0 | 0.00 | 0.00 | 0.00 | 85 | 1013.2 |
| 20260510082709 | 13 | 270 | 0.0 | 0.0 | 0.00 | 0.00 | 0.00 | 85 | 1013.0 |
| 20260510082205 | 13 | 270 | 0.0 | 0.0 | 0.00 | 0.00 | 0.00 | 85 | 1013.0 |
| 20260510081704 | 13 | 270 | 0.0 | 0.0 | 0.00 | 0.00 | 0.00 | 85 | 1013.0 |
| 20260510081201 | 13 | 270 | 0.0 | 0.0 | 0.00 | 0.00 | 0.00 | 85 | 1013.0 |
| 20260510080655 | 13 | 270 | 0.0 | 0.0 | 0.00 | 0.00 | 0.00 | 85 | 1013.0 |
| 20260510080152 | 13 | 270 | 0.0 | 0.0 | 0.00 | 0.00 | 0.00 | 84 | 1012.8 |
| 20260510075648 | 13 | 270 | 0.0 | 0.0 | 0.00 | 0.00 | 0.00 | 84 | 1012.8 |
| 20260510075146 | 13 | 270 | 0.0 | 0.0 | 0.00 | 0.00 | 0.00 | 84 | 1012.8 |
| 20260510074643 | 13 | 188 | 0.0 | 0.0 | 0.00 | 0.00 | 0.00 | 84 | 1012.9 |
| 20260510074139 | 14 | 185 | 0.0 | 1.6 | 0.00 | 0.00 | 0.00 | 84 | 1012.8 |
| 20260510073636 | 14 | 180 | 0.0 | 0.0 | 0.00 | 0.00 | 0.00 | 84 | 1012.7 |
| 20260510073132 | 14 | 180 | 0.0 | 0.0 | 0.00 | 0.00 | 0.00 | 84 | 1012.9 |
| 20260510072628 | 14 | 180 | 0.0 | 0.0 | 0.00 | 0.00 | 0.00 | 84 | 1012.7 |
| 20260510072124 | 14 | 180 | 0.0 | 0.0 | 0.00 | 0.00 | 0.00 | 84 | 1012.7 |
| 20260510071620 | 14 | 180 | 0.0 | 0.0 | 0.00 | 0.00 | 0.00 | 84 | 1012.7 |
| 20260510071118 | 14 | 180 | 0.0 | 0.0 | 0.00 | 0.00 | 0.00 | 84 | 1012.8 |
| 20260510070615 | 14 | 180 | 0.0 | 0.0 | 0.00 | 0.00 | 0.00 | 84 | 1012.8 |
| 20260510070113 | 14 | 0 | 0.0 | 0.0 | 0.00 | 0.00 | 0.00 | 83 | 1012.5 |
| 20260510065609 | 14 | 0 | 0.0 | 1.6 | 0.00 | 0.00 | 0.00 | 83 | 1012.8 |
| 20260510065105 | 14 | 0 | 0.0 | 1.6 | 0.00 | 0.00 | 0.00 | 83 | 1012.9 |
| 20260510064601 | 15 | 90 | 0.0 | 0.0 | 0.00 | 0.00 | 0.00 | 83 | 1012.8 |
| 20260510064058 | 15 | 90 | 0.0 | 0.0 | 0.00 | 0.00 | 0.00 | 83 | 1012.8 |
| 20260510063555 | 15 | 90 | 0.0 | 0.0 | 0.00 | 0.00 | 0.00 | 83 | 1012.7 |
| 20260510063052 | 15 | 90 | 0.0 | 1.6 | 0.00 | 0.00 | 0.00 | 83 | 1012.8 |
| 20260510062548 | 15 | 188 | 0.0 | 0.0 | 0.00 | 0.00 | 0.00 | 83 | 1012.9 |
| 20260510062043 | 15 | 172 | 0.0 | 1.6 | 0.00 | 0.00 | 0.00 | 83 | 1012.8 |
| 20260510061540 | 15 | 353 | 0.0 | 0.0 | 0.00 | 0.00 | 0.00 | 82 | 1012.9 |
| 20260510061036 | 15 | 353 | 0.0 | 0.0 | 0.00 | 0.00 | 0.00 | 82 | 1012.5 |
| 20260510060533 | 15 | 353 | 0.0 | 1.6 | 0.00 | 0.00 | 0.00 | 82 | 1012.9 |
| 20260510060029 | 15 | 262 | 0.0 | 0.0 | 0.00 | 0.00 | 0.00 | 82 | 1012.8 |
| 20260510055525 | 15 | 180 | 0.0 | 0.0 | 0.00 | 0.00 | 0.00 | 82 | 1012.8 |
| 20260510055024 | 15 | 180 | 0.0 | 0.0 | 0.00 | 0.00 | 0.00 | 82 | 1013.1 |
| 20260510054519 | 15 | 180 | 0.0 | 0.0 | 0.00 | 0.00 | 0.00 | 82 | 1012.7 |
| 20260510054014 | 15 | 180 | 0.0 | 1.6 | 0.00 | 0.00 | 0.00 | 82 | 1012.9 |
| 20260510053509 | 15 | 180 | 0.0 | 0.0 | 0.00 | 0.00 | 0.00 | 81 | 1012.9 |
| 20260510053006 | 15 | 180 | 0.0 | 0.0 | 0.00 | 0.00 | 0.00 | 81 | 1013.0 |
| 20260510052502 | 15 | 180 | 0.0 | 0.0 | 0.00 | 0.00 | 0.00 | 81 | 1013.0 |
| 20260510051958 | 15 | 195 | 0.0 | 1.6 | 0.00 | 0.00 | 0.00 | 81 | 1013.2 |
| 20260510051454 | 15 | 203 | 0.0 | 1.6 | 0.00 | 0.00 | 0.00 | 81 | 1013.3 |
| 20260510050951 | 15 | 208 | 0.0 | 0.0 | 0.00 | 0.00 | 0.00 | 81 | 1013.2 |
| 20260510050448 | 15 | 208 | 0.0 | 0.0 | 0.00 | 0.00 | 0.00 | 81 | 1013.2 |
| 20260510045945 | 15 | 208 | 0.0 | 0.0 | 0.00 | 0.00 | 0.00 | 81 | 1013.1 |
| 20260510045442 | 15 | 208 | 0.0 | 0.0 | 0.00 | 0.00 | 0.00 | 80 | 1013.0 |
| 20260510044938 | 16 | 208 | 0.0 | 0.0 | 0.00 | 0.00 | 0.00 | 80 | 1012.9 |
| 20260510044436 | 16 | 208 | 0.0 | 4.8 | 0.00 | 0.00 | 0.00 | 80 | 1013.2 |
| 20260510043932 | 16 | 215 | 0.0 | 0.0 | 0.00 | 0.00 | 0.00 | 80 | 1013.2 |
| 20260510043428 | 16 | 215 | 0.0 | 0.0 | 0.00 | 0.00 | 0.00 | 80 | 1013.2 |
| 20260510042927 | 16 | 215 | 0.0 | 0.0 | 0.00 | 0.00 | 0.00 | 80 | 1013.1 |
| 20260510042422 | 16 | 215 | 0.0 | 3.2 | 0.00 | 0.00 | 0.00 | 80 | 1013.1 |
| 20260510041918 | 16 | 172 | 0.0 | 1.6 | 0.00 | 0.00 | 0.00 | 79 | 1013.2 |
| 20260510041415 | 16 | 180 | 0.0 | 3.2 | 0.00 | 0.00 | 0.00 | 79 | 1013.0 |
| 20260510040913 | 16 | 82 | 0.0 | 0.0 | 0.00 | 0.00 | 0.00 | 79 | 1013.1 |
| 20260510040409 | 16 | 82 | 0.0 | 0.0 | 0.00 | 0.00 | 0.00 | 79 | 1012.8 |
| 20260510035859 | 16 | 82 | 0.0 | 0.0 | 0.00 | 0.00 | 0.00 | 79 | 1012.8 |
| 20260510035356 | 16 | 209 | 0.0 | 1.6 | 0.00 | 0.00 | 0.00 | 78 | 1013.1 |
| 20260510034850 | 16 | 114 | 0.0 | 0.0 | 0.00 | 0.00 | 0.00 | 78 | 1013.1 |
| 20260510034349 | 16 | 90 | 0.0 | 0.0 | 0.00 | 0.00 | 0.00 | 78 | 1013.2 |
| 20260510033845 | 16 | 90 | 0.0 | 0.0 | 0.00 | 0.00 | 0.00 | 77 | 1013.1 |
| 20260510033342 | 16 | 255 | 0.0 | 0.0 | 0.00 | 0.00 | 0.00 | 77 | 1013.1 |
| 20260510032839 | 17 | 255 | 0.0 | 0.0 | 0.00 | 0.00 | 0.00 | 77 | 1012.9 |
| 20260510032336 | 17 | 255 | 0.0 | 0.0 | 0.00 | 0.00 | 0.00 | 77 | 1013.1 |
| 20260510031831 | 17 | 255 | 0.0 | 1.6 | 0.00 | 0.00 | 0.00 | 76 | 1012.9 |
| 20260510031327 | 17 | 240 | 0.0 | 0.0 | 0.00 | 0.00 | 0.00 | 76 | 1013.0 |
| 20260510030827 | 17 | 180 | 0.0 | 0.0 | 0.00 | 0.00 | 0.00 | 76 | 1012.9 |
| 20260510030323 | 17 | 120 | 0.0 | 3.2 | 0.00 | 0.00 | 0.00 | 76 | 1013.0 |
| 20260510025821 | 17 | 180 | 0.0 | 4.8 | 0.00 | 0.00 | 0.00 | 76 | 1012.9 |
| 20260510025318 | 17 | 174 | 0.0 | 3.2 | 0.00 | 0.00 | 0.00 | 75 | 1012.8 |
| 20260510024814 | 17 | 180 | 0.0 | 4.8 | 0.00 | 0.00 | 0.00 | 75 | 1012.8 |
| 20260510024312 | 17 | 106 | 0.0 | 3.2 | 0.00 | 0.00 | 0.00 | 75 | 1012.9 |
| 20260510023808 | 18 | 188 | 0.0 | 1.6 | 0.00 | 0.00 | 0.00 | 75 | 1012.9 |
| 20260510023304 | 18 | 270 | 1.6 | 6.4 | 0.00 | 0.00 | 0.00 | 75 | 1013.0 |
| 20260510022802 | 18 | 201 | 3.2 | 3.2 | 0.00 | 0.00 | 0.00 | 75 | 1012.8 |
| 20260510022301 | 18 | 210 | 3.2 | 4.8 | 0.00 | 0.00 | 0.00 | 74 | 1012.7 |
| 20260510021800 | 18 | 180 | 0.0 | 4.8 | 0.00 | 0.00 | 0.00 | 74 | 1012.7 |
| 20260510021258 | 18 | 215 | 0.0 | 4.8 | 0.00 | 0.00 | 0.00 | 74 | 1012.9 |
| 20260510020754 | 18 | 187 | 1.6 | 3.2 | 0.00 | 0.00 | 0.00 | 74 | 1012.6 |
| 20260510020253 | 18 | 180 | 0.0 | 3.2 | 0.00 | 0.00 | 0.00 | 74 | 1012.8 |
| 20260510015750 | 18 | 209 | 0.0 | 4.8 | 0.00 | 0.00 | 0.00 | 73 | 1012.9 |
| 20260510015246 | 18 | 180 | 1.6 | 4.8 | 0.00 | 0.00 | 0.00 | 73 | 1012.7 |
| 20260510014741 | 18 | 185 | 0.0 | 3.2 | 0.00 | 0.00 | 0.00 | 73 | 1012.6 |
| 20260510014239 | 18 | 249 | 1.6 | 8.0 | 0.00 | 0.00 | 0.00 | 73 | 1012.5 |
| 20260510013735 | 18 | 239 | 3.2 | 3.2 | 0.00 | 0.00 | 0.00 | 73 | 1012.4 |
| 20260510013230 | 18 | 190 | 3.2 | 3.2 | 0.00 | 0.00 | 0.00 | 73 | 1012.3 |
| 20260510012725 | 18 | 200 | 1.6 | 4.8 | 0.00 | 0.00 | 0.00 | 72 | 1012.3 |
| 20260510012221 | 18 | 199 | 3.2 | 4.8 | 0.00 | 0.00 | 0.00 | 72 | 1012.1 |
| 20260510011720 | 18 | 198 | 3.2 | 4.8 | 0.00 | 0.00 | 0.00 | 72 | 1012.1 |
| 20260510011216 | 19 | 180 | 3.2 | 6.4 | 0.00 | 0.00 | 0.00 | 72 | 1011.9 |
| 20260510010713 | 19 | 198 | 3.2 | 3.2 | 0.00 | 0.00 | 0.00 | 71 | 1011.9 |
| 20260510010210 | 19 | 209 | 3.2 | 3.2 | 0.00 | 0.00 | 0.00 | 71 | 1011.7 |
| 20260510005706 | 19 | 180 | 3.2 | 4.8 | 0.00 | 0.00 | 0.00 | 71 | 1011.6 |
| 20260510005203 | 19 | 203 | 0.0 | 3.2 | 0.00 | 0.00 | 0.00 | 71 | 1011.8 |
| 20260510004702 | 19 | 180 | 1.6 | 6.4 | 0.00 | 0.00 | 0.00 | 71 | 1011.7 |
| 20260510004159 | 19 | 225 | 3.2 | 4.8 | 0.00 | 0.00 | 0.00 | 71 | 1011.4 |
| 20260510003656 | 19 | 261 | 3.2 | 4.8 | 0.00 | 0.00 | 0.00 | 70 | 1011.6 |
| 20260510003151 | 19 | 225 | 0.0 | 4.8 | 0.00 | 0.00 | 0.00 | 70 | 1011.1 |
| 20260510002646 | 20 | 240 | 1.6 | 4.8 | 0.00 | 0.00 | 0.00 | 69 | 1011.3 |
| 20260510002143 | 20 | 200 | 1.6 | 4.8 | 0.00 | 0.00 | 0.00 | 69 | 1011.4 |
| 20260510001640 | 20 | 203 | 0.0 | 3.2 | 0.00 | 0.00 | 0.00 | 69 | 1011.2 |
| 20260510001139 | 20 | 209 | 0.0 | 3.2 | 0.00 | 0.00 | 0.00 | 68 | 1011.4 |
| 20260510000639 | 20 | 235 | 0.0 | 3.2 | 0.00 | 0.00 | 0.00 | 68 | 1011.3 |
| 20260510000137 | 20 | 220 | 3.2 | 3.2 | 0.00 | 0.00 | 0.00 | 67 | 1011.3 |
| 20260509235632 | 21 | 188 | 0.0 | 4.8 | 0.00 | 0.00 | 0.00 | 67 | 1011.1 |
| 20260509235129 | 21 | 203 | 1.6 | 3.2 | 0.00 | 0.00 | 0.00 | 66 | 1011.3 |
| 20260509234625 | 21 | 233 | 0.0 | 0.0 | 0.00 | 0.00 | 0.00 | 66 | 1011.1 |
| 20260509234123 | 21 | 200 | 0.0 | 1.6 | 0.00 | 0.00 | 0.00 | 66 | 1011.1 |
| 20260509233621 | 21 | 206 | 0.0 | 4.8 | 0.00 | 0.00 | 0.00 | 65 | 1010.8 |
| 20260509233118 | 21 | 183 | 4.8 | 6.4 | 0.00 | 0.00 | 0.00 | 65 | 1010.9 |
| 20260509232614 | 21 | 166 | 0.0 | 3.2 | 0.00 | 0.00 | 0.00 | 65 | 1010.6 |
| 20260509232111 | 21 | 0 | 0.0 | 9.7 | 0.00 | 0.00 | 0.00 | 64 | 1010.7 |
| 20260509231608 | 21 | 217 | 0.0 | 3.2 | 0.00 | 0.00 | 0.00 | 64 | 1010.9 |
| 20260509231105 | 21 | 172 | 0.0 | 12.9 | 0.00 | 0.00 | 0.00 | 64 | 1010.6 |
| 20260509230602 | 21 | 206 | 8.0 | 8.0 | 0.00 | 0.00 | 0.00 | 64 | 1010.6 |
| 20260509230059 | 21 | 236 | 0.0 | 16.1 | 0.00 | 0.00 | 0.00 | 64 | 1010.6 |
| 20260509225554 | 21 | 99 | 0.0 | 4.8 | 0.00 | 0.00 | 0.00 | 64 | 1010.6 |
| 20260509225050 | 22 | 221 | 6.4 | 8.0 | 0.00 | 0.00 | 0.00 | 64 | 1010.4 |
| 20260509224546 | 22 | 225 | 4.8 | 6.4 | 0.00 | 0.00 | 0.00 | 64 | 1010.5 |
| 20260509224043 | 22 | 352 | 0.0 | 8.0 | 0.00 | 0.00 | 0.00 | 64 | 1010.2 |
| 20260509223540 | 22 | 168 | 3.2 | 8.0 | 0.00 | 0.00 | 0.00 | 64 | 1010.4 |
| 20260509223038 | 22 | 180 | 0.0 | 3.2 | 0.00 | 0.00 | 0.00 | 64 | 1010.4 |
| 20260509222533 | 22 | 261 | 0.0 | 4.8 | 0.00 | 0.00 | 0.00 | 65 | 1010.4 |
| 20260509222035 | 22 | 191 | 3.2 | 9.7 | 0.00 | 0.00 | 0.00 | 65 | 1010.3 |
| 20260509221525 | 21 | 204 | 3.2 | 12.9 | 0.00 | 0.00 | 0.00 | 65 | 1010.5 |
| 20260509221021 | 21 | 186 | 6.4 | 6.4 | 0.00 | 0.00 | 0.00 | 65 | 1010.4 |
| 20260509220518 | 21 | 248 | 4.8 | 11.3 | 0.00 | 0.00 | 0.00 | 64 | 1010.3 |
| 20260509220014 | 21 | 225 | 3.2 | 8.0 | 0.00 | 0.00 | 0.00 | 64 | 1010.6 |
| 20260509215509 | 21 | 188 | 3.2 | 6.4 | 0.00 | 0.00 | 0.00 | 64 | 1010.5 |
| 20260509215007 | 21 | 334 | 0.0 | 6.4 | 0.00 | 0.00 | 0.00 | 63 | 1010.4 |
| 20260509214504 | 22 | 212 | 3.2 | 6.4 | 0.00 | 0.00 | 0.00 | 63 | 1010.4 |
| 20260509214001 | 22 | 243 | 4.8 | 6.4 | 0.00 | 0.00 | 0.00 | 62 | 1010.6 |
| 20260509213457 | 22 | 261 | 0.0 | 4.8 | 0.00 | 0.00 | 0.00 | 62 | 1010.4 |
| 20260509212954 | 22 | 7 | 0.0 | 4.8 | 0.00 | 0.00 | 0.00 | 61 | 1010.3 |
| 20260509212451 | 22 | 207 | 8.0 | 12.9 | 0.00 | 0.00 | 0.00 | 61 | 1010.5 |
| 20260509211947 | 22 | 199 | 3.2 | 9.7 | 0.00 | 0.00 | 0.00 | 61 | 1010.4 |
| 20260509211443 | 22 | 151 | 1.6 | 9.7 | 0.00 | 0.00 | 0.00 | 60 | 1010.4 |
| 20260509210940 | 22 | 6 | 4.8 | 8.0 | 0.00 | 0.00 | 0.00 | 61 | 1010.2 |
| 20260509210437 | 22 | 234 | 1.6 | 20.9 | 0.00 | 0.00 | 0.00 | 60 | 1009.8 |
| 20260509205932 | 22 | 79 | 3.2 | 9.7 | 0.00 | 0.00 | 0.00 | 61 | 1009.9 |
| 20260509205427 | 22 | 279 | 0.0 | 6.4 | 0.00 | 0.00 | 0.00 | 61 | 1009.9 |
| 20260509204923 | 22 | 100 | 0.0 | 3.2 | 0.00 | 0.00 | 0.00 | 61 | 1010.1 |
| 20260509204420 | 22 | 270 | 0.0 | 11.3 | 0.00 | 0.00 | 0.00 | 61 | 1010.3 |
| 20260509203917 | 22 | 186 | 11.3 | 14.5 | 0.00 | 0.00 | 0.00 | 61 | 1010.4 |
| 20260509203412 | 22 | 180 | 0.0 | 8.0 | 0.00 | 0.00 | 0.00 | 61 | 1010.3 |
| 20260509202910 | 22 | 297 | 0.0 | 3.2 | 0.00 | 0.00 | 0.00 | 62 | 1010.4 |
| 20260509202406 | 22 | 82 | 1.6 | 4.8 | 0.00 | 0.00 | 0.00 | 62 | 1010.5 |
| 20260509201901 | 22 | 240 | 4.8 | 8.0 | 0.00 | 0.00 | 0.00 | 62 | 1010.5 |
| 20260509201356 | 22 | 291 | 1.6 | 11.3 | 0.00 | 0.00 | 0.00 | 63 | 1010.2 |
| 20260509200854 | 22 | 196 | 0.0 | 14.5 | 0.00 | 0.00 | 0.00 | 63 | 1010.3 |
| 20260509200348 | 22 | 215 | 0.0 | 14.5 | 0.00 | 0.00 | 0.00 | 63 | 1010.4 |
| 20260509195846 | 22 | 270 | 3.2 | 4.8 | 0.00 | 0.00 | 0.00 | 63 | 1010.3 |
| 20260509195345 | 22 | 194 | 4.8 | 8.0 | 0.00 | 0.00 | 0.00 | 64 | 1010.5 |
| 20260509194845 | 22 | 190 | 4.8 | 4.8 | 0.00 | 0.00 | 0.00 | 63 | 1010.3 |
| 20260509194341 | 22 | 205 | 6.4 | 17.7 | 0.00 | 0.00 | 0.00 | 64 | 1010.7 |
| 20260509193838 | 21 | 278 | 0.0 | 8.0 | 0.00 | 0.00 | 0.00 | 64 | 1010.7 |
| 20260509193332 | 21 | 186 | 0.0 | 8.0 | 0.00 | 0.00 | 0.00 | 63 | 1010.7 |
| 20260509192829 | 21 | 208 | 11.3 | 11.3 | 0.00 | 0.00 | 0.00 | 64 | 1010.9 |
| 20260509192325 | 21 | 35 | 0.0 | 9.7 | 0.00 | 0.00 | 0.00 | 63 | 1010.9 |
| 20260509191820 | 22 | 262 | 0.0 | 4.8 | 0.00 | 0.00 | 0.00 | 64 | 1010.8 |
| 20260509191316 | 21 | 174 | 8.0 | 16.1 | 0.00 | 0.00 | 0.00 | 63 | 1010.7 |
| 20260509190812 | 22 | 157 | 0.0 | 4.8 | 0.00 | 0.00 | 0.00 | 64 | 1010.6 |
| 20260509190310 | 21 | 207 | 9.7 | 9.7 | 0.00 | 0.00 | 0.00 | 64 | 1010.9 |
| 20260509185807 | 21 | 180 | 0.0 | 9.7 | 0.00 | 0.00 | 0.00 | 64 | 1010.9 |
| 20260509185306 | 21 | 209 | 4.8 | 6.4 | 0.00 | 0.00 | 0.00 | 64 | 1010.6 |
| 20260509184800 | 21 | 194 | 0.0 | 4.8 | 0.00 | 0.00 | 0.00 | 65 | 1010.9 |
| 20260509184258 | 21 | 225 | 0.0 | 6.4 | 0.00 | 0.00 | 0.00 | 66 | 1010.7 |
| 20260509183754 | 21 | 358 | 0.0 | 6.4 | 0.00 | 0.00 | 0.00 | 65 | 1010.9 |
| 20260509183249 | 21 | 74 | 0.0 | 4.8 | 0.00 | 0.00 | 0.00 | 65 | 1011.2 |
| 20260509182745 | 21 | 201 | 6.4 | 8.0 | 0.00 | 0.00 | 0.00 | 64 | 1011.2 |
| 20260509182243 | 21 | 229 | 0.0 | 9.7 | 0.00 | 0.00 | 0.00 | 65 | 1011.2 |
| 20260509181740 | 21 | 210 | 0.0 | 4.8 | 0.00 | 0.00 | 0.00 | 65 | 1011.4 |
| 20260509181237 | 21 | 185 | 0.0 | 8.0 | 0.00 | 0.00 | 0.00 | 64 | 1011.3 |
| 20260509180734 | 21 | 236 | 4.8 | 12.9 | 0.00 | 0.00 | 0.00 | 65 | 1011.6 |
| 20260509180231 | 21 | 204 | 6.4 | 6.4 | 0.00 | 0.00 | 0.00 | 64 | 1011.4 |
| 20260509175727 | 21 | 57 | 3.2 | 6.4 | 0.00 | 0.00 | 0.00 | 64 | 1011.5 |
| 20260509175223 | 21 | 172 | 0.0 | 11.3 | 0.00 | 0.00 | 0.00 | 64 | 1011.3 |
| 20260509174719 | 21 | 184 | 3.2 | 6.4 | 0.00 | 0.00 | 0.00 | 63 | 1011.3 |
| 20260509174214 | 21 | 215 | 4.8 | 11.3 | 0.00 | 0.00 | 0.00 | 62 | 1011.4 |
| 20260509173711 | 21 | 270 | 1.6 | 9.7 | 0.00 | 0.00 | 0.00 | 65 | 1011.3 |
| 20260509173207 | 21 | 237 | 0.0 | 6.4 | 0.00 | 0.00 | 0.00 | 64 | 1011.3 |
| 20260509172703 | 21 | 165 | 6.4 | 6.4 | 0.00 | 0.00 | 0.00 | 65 | 1011.6 |
| 20260509172200 | 21 | 203 | 0.0 | 11.3 | 0.00 | 0.00 | 0.00 | 65 | 1011.5 |
| 20260509171655 | 21 | 286 | 1.6 | 6.4 | 0.00 | 0.00 | 0.00 | 64 | 1011.5 |
| 20260509171151 | 21 | 233 | 0.0 | 11.3 | 0.00 | 0.00 | 0.00 | 64 | 1011.6 |
| 20260509170649 | 22 | 54 | 1.6 | 12.9 | 0.00 | 0.00 | 0.00 | 64 | 1011.8 |
| 20260509170144 | 22 | 180 | 3.2 | 11.3 | 0.00 | 0.00 | 0.00 | 66 | 1012.0 |
| 20260509165643 | 21 | 264 | 0.0 | 4.8 | 0.00 | 0.00 | 0.00 | 68 | 1011.9 |
| 20260509165139 | 21 | 5 | 4.8 | 4.8 | 0.00 | 0.00 | 0.00 | 67 | 1011.9 |
| 20260509164629 | 21 | 228 | 0.0 | 8.0 | 0.00 | 0.00 | 0.00 | 67 | 1012.1 |
| 20260509164125 | 21 | 265 | 3.2 | 8.0 | 0.00 | 0.00 | 0.00 | 68 | 1012.1 |
| 20260509163623 | 21 | 180 | 6.4 | 14.5 | 0.00 | 0.00 | 0.00 | 68 | 1012.4 |
| 20260509163118 | 20 | 270 | 0.0 | 8.0 | 0.00 | 0.00 | 0.00 | 68 | 1012.4 |